FFL693 K1G0-KFDK

Flight info

Callsign FFL693
Flight time N/A
Altitude 25000
Route AGC MRB
Aircraft PC12/L-SDFGRWY/S

Departure

Time N/A
Airport Wood County Airport (K1G0)

Arrival

Time 2026-04-26 16:07
Airport Frederick Municipal Airport (KFDK)
Time Latitude Longitude Altitude Speed Heading
2026-04-26 15:25 40.36503 -80.75416 25184 ft 293 kts 106°
2026-04-26 15:25 40.35865 -80.72885 25183 ft 293 kts 106°
2026-04-26 15:26 40.35227 -80.70346 25182 ft 293 kts 106°
2026-04-26 15:26 40.34589 -80.67814 25186 ft 293 kts 106°
2026-04-26 15:26 40.33893 -80.65309 25182 ft 293 kts 110°
2026-04-26 15:26 40.33116 -80.62842 25183 ft 293 kts 109°
2026-04-26 15:27 40.32427 -80.60331 25185 ft 292 kts 106°
2026-04-26 15:27 40.31799 -80.57801 25187 ft 292 kts 106°
2026-04-26 15:27 40.31145 -80.55273 25184 ft 293 kts 107°
2026-04-26 15:27 40.30710 -80.52694 25176 ft 289 kts 92°
2026-04-26 15:28 40.30701 -80.50071 25178 ft 288 kts 86°
2026-04-26 15:28 40.30687 -80.47444 25181 ft 289 kts 90°
2026-04-26 15:28 40.30523 -80.44819 25183 ft 290 kts 94°
2026-04-26 15:28 40.30310 -80.42192 25201 ft 290 kts 93°
2026-04-26 15:29 40.30136 -80.39560 25203 ft 290 kts 92°
2026-04-26 15:29 40.29979 -80.36929 25205 ft 290 kts 92°
2026-04-26 15:29 40.29648 -80.31659 25207 ft 290 kts 92°
2026-04-26 15:30 40.29311 -80.26390 25205 ft 290 kts 92°
2026-04-26 15:30 40.29143 -80.23756 25207 ft 290 kts 92°
2026-04-26 15:30 40.28969 -80.21123 25204 ft 290 kts 94°
2026-04-26 15:31 40.28782 -80.18494 25199 ft 290 kts 94°
2026-04-26 15:31 40.28450 -80.13245 25166 ft 289 kts 93°
2026-04-26 15:31 40.28281 -80.10627 25163 ft 289 kts 93°
2026-04-26 15:32 40.27994 -80.06272 25159 ft 289 kts 94°
2026-04-26 15:32 40.27363 -80.02888 25180 ft 292 kts 112°
2026-04-26 15:32 40.26433 -80.00479 25176 ft 293 kts 117°
2026-04-26 15:33 40.25508 -79.98142 25175 ft 293 kts 116°
2026-04-26 15:33 40.24564 -79.95739 25176 ft 293 kts 116°
2026-04-26 15:33 40.23632 -79.93366 25173 ft 293 kts 116°
2026-04-26 15:33 40.22709 -79.91028 25172 ft 293 kts 116°
2026-04-26 15:34 40.21772 -79.88656 25170 ft 293 kts 116°
2026-04-26 15:34 40.20836 -79.86284 25170 ft 293 kts 116°
2026-04-26 15:34 40.19899 -79.83914 25171 ft 293 kts 116°
2026-04-26 15:34 40.18957 -79.81547 25171 ft 293 kts 117°
2026-04-26 15:35 40.18010 -79.79185 25168 ft 293 kts 116°
2026-04-26 15:35 40.17071 -79.76816 25164 ft 293 kts 116°
2026-04-26 15:35 40.16136 -79.74449 25165 ft 293 kts 116°
2026-04-26 15:35 40.15198 -79.72082 25165 ft 293 kts 116°
2026-04-26 15:36 40.14259 -79.69718 25164 ft 293 kts 116°
2026-04-26 15:36 40.13319 -79.67354 25165 ft 293 kts 116°
2026-04-26 15:36 40.12378 -79.64987 25164 ft 293 kts 116°
2026-04-26 15:36 40.11437 -79.62621 25161 ft 293 kts 116°
2026-04-26 15:37 40.10495 -79.60257 25164 ft 293 kts 116°
2026-04-26 15:37 40.09553 -79.57895 25163 ft 293 kts 116°
2026-04-26 15:37 40.08610 -79.55532 25163 ft 293 kts 116°
2026-04-26 15:37 40.07666 -79.53165 25161 ft 294 kts 116°
2026-04-26 15:38 40.06722 -79.50801 25133 ft 293 kts 117°
2026-04-26 15:38 40.05796 -79.48491 24871 ft 283 kts 117°
2026-04-26 15:38 40.04893 -79.46234 24621 ft 279 kts 117°
2026-04-26 15:38 40.04000 -79.44002 24375 ft 277 kts 116°
2026-04-26 15:39 40.03109 -79.41768 24141 ft 278 kts 117°
2026-04-26 15:39 40.02208 -79.39529 23907 ft 279 kts 117°
2026-04-26 15:39 40.01309 -79.37291 23662 ft 278 kts 117°
2026-04-26 15:39 40.00713 -79.35810 23477 ft 278 kts 117°
2026-04-26 15:40 39.99513 -79.32822 23111 ft 278 kts 116°
2026-04-26 15:40 39.98523 -79.30665 22852 ft 278 kts 130°
2026-04-26 15:40 39.97298 -79.28713 22451 ft 280 kts 120°
2026-04-26 15:40 39.96421 -79.26442 22044 ft 281 kts 112°
2026-04-26 15:41 39.95623 -79.24114 21664 ft 282 kts 115°
2026-04-26 15:41 39.94666 -79.21875 21289 ft 283 kts 119°
2026-04-26 15:41 39.93695 -79.19645 20907 ft 283 kts 116°
2026-04-26 15:41 39.92789 -79.17362 20529 ft 283 kts 115°
2026-04-26 15:42 39.91896 -79.15073 20162 ft 283 kts 115°
2026-04-26 15:42 39.90985 -79.12799 19795 ft 283 kts 115°
2026-04-26 15:42 39.90070 -79.10538 19440 ft 281 kts 115°
2026-04-26 15:42 39.89165 -79.08287 19083 ft 280 kts 115°
2026-04-26 15:43 39.88264 -79.06042 18729 ft 279 kts 115°
2026-04-26 15:43 39.87365 -79.03807 18378 ft 278 kts 115°
2026-04-26 15:43 39.85575 -78.99364 17582 ft 276 kts 114°
2026-04-26 15:44 39.84697 -78.97187 17207 ft 274 kts 114°
2026-04-26 15:44 39.82933 -78.92816 16458 ft 271 kts 114°
2026-04-26 15:44 39.82044 -78.90614 16078 ft 270 kts 114°
2026-04-26 15:45 39.80307 -78.86322 15348 ft 266 kts 113°
2026-04-26 15:45 39.79447 -78.84198 14982 ft 265 kts 113°
2026-04-26 15:46 39.77743 -78.79992 14278 ft 261 kts 112°
2026-04-26 15:46 39.76897 -78.77907 13922 ft 260 kts 112°
2026-04-26 15:46 39.76052 -78.75826 13527 ft 261 kts 112°
2026-04-26 15:46 39.75485 -78.74428 13277 ft 267 kts 113°
2026-04-26 15:47 39.74313 -78.71546 12775 ft 271 kts 113°
2026-04-26 15:47 39.72556 -78.67237 12027 ft 269 kts 113°
2026-04-26 15:47 39.71697 -78.65125 11662 ft 267 kts 114°
2026-04-26 15:48 39.70829 -78.62999 11295 ft 266 kts 114°
2026-04-26 15:48 39.69955 -78.60860 10928 ft 263 kts 114°
2026-04-26 15:48 39.69114 -78.58800 10665 ft 259 kts 114°
2026-04-26 15:48 39.68274 -78.56741 10428 ft 258 kts 114°
2026-04-26 15:49 39.67437 -78.54692 10189 ft 256 kts 114°
2026-04-26 15:49 39.66602 -78.52652 9929 ft 255 kts 114°
2026-04-26 15:49 39.65772 -78.50626 9665 ft 254 kts 114°
2026-04-26 15:49 39.64946 -78.48611 9400 ft 252 kts 114°
2026-04-26 15:50 39.64124 -78.46605 9143 ft 251 kts 114°
2026-04-26 15:50 39.63306 -78.44609 8883 ft 250 kts 114°
2026-04-26 15:50 39.62490 -78.42623 8624 ft 249 kts 114°
2026-04-26 15:50 39.61680 -78.40648 8369 ft 248 kts 115°
2026-04-26 15:51 39.60869 -78.38676 8127 ft 247 kts 115°
2026-04-26 15:51 39.60062 -78.36715 7869 ft 246 kts 115°
2026-04-26 15:51 39.59257 -78.34760 7617 ft 245 kts 115°
2026-04-26 15:51 39.58456 -78.32814 7363 ft 244 kts 115°
2026-04-26 15:52 39.57657 -78.30877 7124 ft 244 kts 115°
2026-04-26 15:52 39.56860 -78.28942 6879 ft 243 kts 115°
2026-04-26 15:52 39.56066 -78.27018 6638 ft 241 kts 115°
2026-04-26 15:52 39.55533 -78.25725 6467 ft 241 kts 115°
2026-04-26 15:53 39.54502 -78.23234 6118 ft 232 kts 115°
2026-04-26 15:53 39.53739 -78.21384 5854 ft 234 kts 115°
2026-04-26 15:53 39.53050 -78.19716 5629 ft 234 kts 116°
2026-04-26 15:53 39.52283 -78.17863 5377 ft 233 kts 116°
2026-04-26 15:54 39.51517 -78.16015 5122 ft 232 kts 116°
2026-04-26 15:54 39.50753 -78.14173 4866 ft 232 kts 116°
2026-04-26 15:54 39.49994 -78.12341 4602 ft 230 kts 116°
2026-04-26 15:54 39.49241 -78.10526 4340 ft 228 kts 116°
2026-04-26 15:55 39.48494 -78.08725 4079 ft 226 kts 116°
2026-04-26 15:55 39.47757 -78.06951 3965 ft 220 kts 116°
2026-04-26 15:55 39.47042 -78.05228 3970 ft 216 kts 115°
2026-04-26 15:55 39.46332 -78.03519 3964 ft 215 kts 116°
2026-04-26 15:56 39.45625 -78.01820 3966 ft 214 kts 115°
2026-04-26 15:56 39.44920 -78.00124 3963 ft 214 kts 115°
2026-04-26 15:56 39.44214 -77.98428 3962 ft 214 kts 116°
2026-04-26 15:56 39.43505 -77.96730 3964 ft 214 kts 116°
2026-04-26 15:57 39.42797 -77.95033 3960 ft 214 kts 115°
2026-04-26 15:57 39.42091 -77.93339 3964 ft 214 kts 115°
2026-04-26 15:57 39.41384 -77.91645 3966 ft 214 kts 115°
2026-04-26 15:57 39.40915 -77.90523 3964 ft 214 kts 115°
2026-04-26 15:58 39.39967 -77.88254 3959 ft 214 kts 115°
2026-04-26 15:58 39.39261 -77.86564 3967 ft 214 kts 115°
2026-04-26 15:58 39.38559 -77.84871 3965 ft 213 kts 114°
2026-04-26 15:58 39.37992 -77.83109 3970 ft 212 kts 109°
2026-04-26 15:59 39.37633 -77.81933 3967 ft 212 kts 109°
2026-04-26 15:59 39.37085 -77.80163 3973 ft 212 kts 109°
2026-04-26 15:59 39.36532 -77.78394 3974 ft 212 kts 109°
2026-04-26 15:59 39.35801 -77.76057 3974 ft 212 kts 109°
2026-04-26 16:00 39.35249 -77.74292 3972 ft 212 kts 109°
2026-04-26 16:00 39.34876 -77.73099 3973 ft 213 kts 109°
2026-04-26 16:00 39.34322 -77.71326 3975 ft 213 kts 109°
2026-04-26 16:00 39.33766 -77.69550 3974 ft 213 kts 109°
2026-04-26 16:01 39.33211 -77.67782 3973 ft 212 kts 109°
2026-04-26 16:01 39.32659 -77.66020 3986 ft 211 kts 109°
2026-04-26 16:01 39.32105 -77.64256 3925 ft 213 kts 109°
2026-04-26 16:01 39.31548 -77.62483 3778 ft 214 kts 109°
2026-04-26 16:02 39.30990 -77.60705 3607 ft 213 kts 109°
2026-04-26 16:02 39.30442 -77.58964 3437 ft 211 kts 109°
2026-04-26 16:02 39.29883 -77.57182 3252 ft 212 kts 109°
2026-04-26 16:02 39.29519 -77.56014 3129 ft 212 kts 108°
2026-04-26 16:03 39.29212 -77.53568 2876 ft 209 kts 85°
2026-04-26 16:03 39.29481 -77.51747 2690 ft 205 kts 69°
2026-04-26 16:03 39.30136 -77.50122 2513 ft 204 kts 53°
2026-04-26 16:03 39.31117 -77.48810 2334 ft 203 kts 39°
2026-04-26 16:04 39.32196 -77.47649 2177 ft 201 kts 40°
2026-04-26 16:04 39.33256 -77.46485 2004 ft 199 kts 40°
2026-04-26 16:04 39.34280 -77.45357 1835 ft 186 kts 40°
2026-04-26 16:04 39.35206 -77.44343 1680 ft 158 kts 40°
2026-04-26 16:05 39.35954 -77.43521 1552 ft 124 kts 40°
2026-04-26 16:05 39.36573 -77.42787 1450 ft 121 kts 47°
2026-04-26 16:05 39.37191 -77.42069 1290 ft 118 kts 38°
2026-04-26 16:05 39.37838 -77.41461 1089 ft 114 kts 37°
2026-04-26 16:06 39.38410 -77.40887 951 ft 93 kts 42°
2026-04-26 16:06 39.38874 -77.40366 782 ft 89 kts 43°
2026-04-26 16:06 39.39329 -77.39846 672 ft 87 kts 43°
2026-04-26 16:06 39.39818 -77.39314 624 ft 93 kts 44°
2026-04-26 16:07 39.40297 -77.38775 517 ft 91 kts 42°
2026-04-26 16:07 39.40774 -77.38249 380 ft 89 kts 42°
2026-04-26 16:07 39.41226 -77.37754 309 ft 74 kts 40°
2026-04-26 16:07 39.41494 -77.37457 298 ft 23 kts 39°
2026-04-26 16:08 39.41557 -77.37490 296 ft 12 kts 277°
2026-04-26 16:08 39.41566 -77.37600 298 ft 16 kts 277°
2026-04-26 16:08 39.41574 -77.37744 299 ft 15 kts 274°
2026-04-26 16:08 39.41602 -77.37856 301 ft 14 kts
2026-04-26 16:09 39.41725 -77.37841 299 ft 12 kts
2026-04-26 16:09 39.41805 -77.37836 299 ft 7 kts 346°